Location: Unspecified
(0.0000°N, 0.0000°E)
Time: 08:40:23
(UTC+01:00)

ARIANE 5 R/B - Visible Passes

Search period start: 26 October 2014 00:00
Search period end: 04 November 2014 23:00
Orbit: 545 x 35676 km, 7.2° (Epoch: 25 October)

Date Brightness Start Highest point End Pass type
(mag) Time Alt. Az. Time Alt. Az. Time Alt. Az.
26 Oct 9.9 00:00:00 48° E 04:12:33 82° NE 06:14:52 10° E visible
26 Oct 10.4 21:11:58 10° E 01:22:57 35° E 02:58:43 10° E visible
28 Oct 6.3 10:47:00 10° W 11:25:39 72° N 11:30:47 10° E visible
28 Oct 8.8 22:32:59 10° W 01:17:59 90° SSW 08:34:03 10° E visible
29 Oct 8.7 19:33:56 10° WSW 03:39:40 75° ENE 05:32:34 10° E visible
30 Oct 10.5 21:34:43 10° E 00:42:15 27° E 02:08:28 10° E visible
01 Nov 6.7 00:58:48 10° W 10:44:00 73° N 10:50:08 10° E visible
01 Nov 8.7 21:51:20 10° WSW 01:51:04 88° N 07:52:57 10° E visible
02 Nov 6.8 18:53:09 10° WSW 19:02:02 69° S 04:49:42 10° E visible
03 Nov 10.6 21:59:51 10° E 00:01:52 19° E 01:11:47 10° E visible
04 Nov 10.3 04:14:17 10° W 04:58:39 13° W 05:59:31 10° W visible
